Weather History for Opa Locka, FL

Change the Weather History Date:

Saturday, November 9, 2013

  Actual Average Record
Temperature  
Mean Temperature 78 °F -  
Max Temperature 82 °F 82 °F 89 °F (1989)
Min Temperature 73 °F 65 °F 47 °F (1985)
Cooling Degree Days 12    
Growing Degree Days 28 (Base 50)    
Moisture  
Dew Point 72 °F    
Average Humidity 84    
Maximum Humidity 100    
Minimum Humidity 69    
Precipitation  
Precipitation 0.12 in - - ()
Sea Level Pressure  
Sea Level Pressure 30.07 in    
Wind  
Wind Speed 12 mph (ENE)    
Max Wind Speed 22 mph    
Max Gust Speed 26 mph    
Visibility 9 miles    
Events Rain    
Averages and records for this station are not official NWS values.
T = Trace of Precipitation, MM = Missing Value Source: NWS Daily Summary

Daily Weather History Graph

Daily Weather History Graph

Search for Another Location

Airport:

Trip Planner

Search our weather history database for the weather conditions in past years. The results will help you decide how hot, cold, wet, or windy it might be!

Date:

Astronomy

Nov. 09, 2013 Rise Set
Actual Time 6:35 AM EST 5:34 PM EST
Civil Twilight 6:11 AM EST 5:58 PM EST
Nautical Twilight 5:43 AM EST 6:26 PM EST
Astronomical Twilight 5:16 AM EST 6:53 PM EST
Moon 12:16 PM EST (11/9) 11:54 PM EST (11/9)
Length of Visible Light 11h 47m
Length of Day
10h 59m
Waxing Crescent, 44% of the Moon is Illuminated
Nov 9
Waxing Crescent
Nov 10
First Quarter
Nov 17
Full
Nov 25
Last Quarter
Dec 2
New

Hourly Weather History & Observations

Time (EST) Temp. Heat Index Dew Point Humidity Pressure Visibility Wind Dir Wind Speed Gust Speed Precip Events Conditions
12:53 AM 75.9 °F - 73.0 °F 91% 30.03 in 10.0 mi NE 9.2 mph - N/A   Overcast
1:53 AM 75.9 °F - 73.0 °F 91% 30.02 in 10.0 mi NE 6.9 mph - N/A   Overcast
2:53 AM 77.0 °F - 72.0 °F 84% 30.02 in 10.0 mi ENE 9.2 mph - N/A   Mostly Cloudy
3:53 AM 75.9 °F - 72.0 °F 87% 30.02 in 10.0 mi NE 4.6 mph - N/A   Mostly Cloudy
4:53 AM 75.9 °F - 72.0 °F 87% 30.03 in 10.0 mi ENE 5.8 mph - N/A   Overcast
5:21 AM 77.0 °F - 71.6 °F 83% 30.03 in 10.0 mi ENE 8.1 mph - N/A   Overcast
5:53 AM 77.0 °F - 72.0 °F 84% 30.05 in 10.0 mi ENE 9.2 mph - N/A   Overcast
6:36 AM 77.0 °F - 71.6 °F 83% 30.05 in 10.0 mi ENE 13.8 mph - N/A   Mostly Cloudy
6:53 AM 77.0 °F - 72.0 °F 84% 30.06 in 10.0 mi ENE 11.5 mph - N/A   Overcast
7:11 AM 78.8 °F - 71.6 °F 78% 30.06 in 10.0 mi ENE 15.0 mph - N/A   Mostly Cloudy
7:35 AM 78.8 °F - 71.6 °F 78% 30.07 in 10.0 mi ENE 10.4 mph 21.9 mph N/A   Overcast
7:53 AM 77.0 °F - 72.0 °F 84% 30.09 in 10.0 mi ENE 15.0 mph - N/A   Overcast
8:53 AM 80.1 °F 83.8 °F 72.0 °F 76% 30.09 in 10.0 mi East 21.9 mph 26.5 mph N/A   Mostly Cloudy
9:02 AM 78.8 °F - 71.6 °F 78% 30.09 in 10.0 mi ENE 17.3 mph - N/A   Mostly Cloudy
9:53 AM 78.1 °F - 72.0 °F 81% 30.11 in 10.0 mi ENE 18.4 mph - N/A   Mostly Cloudy
10:44 AM 80.6 °F 84.6 °F 71.6 °F 74% 30.10 in 10.0 mi ENE 19.6 mph 24.2 mph N/A   Mostly Cloudy
10:53 AM 82.0 °F 86.7 °F 72.0 °F 71% 30.10 in 10.0 mi East 19.6 mph - N/A   Scattered Clouds
11:37 AM 82.4 °F 87.2 °F 71.6 °F 70% 30.09 in 10.0 mi ENE 16.1 mph - N/A   Mostly Cloudy
11:53 AM 81.0 °F 84.9 °F 71.1 °F 72% 30.09 in 10.0 mi East 15.0 mph 26.5 mph N/A   Mostly Cloudy
12:08 PM 80.6 °F 84.6 °F 71.6 °F 74% 30.08 in 10.0 mi ENE 21.9 mph - N/A Rain Light Rain
12:53 PM 82.0 °F 86.3 °F 71.1 °F 69% 30.07 in 10.0 mi ENE 16.1 mph 23.0 mph N/A   Mostly Cloudy
1:53 PM 80.1 °F 83.6 °F 71.1 °F 74% 30.06 in 10.0 mi ENE 18.4 mph - N/A   Overcast
2:40 PM 80.6 °F 84.6 °F 71.6 °F 74% 30.06 in 10.0 mi ENE 17.3 mph 24.2 mph N/A   Overcast
2:53 PM 80.1 °F 83.6 °F 71.1 °F 74% 30.06 in 10.0 mi NE 16.1 mph - N/A   Overcast
3:16 PM 80.6 °F 84.6 °F 71.6 °F 74% 30.06 in 10.0 mi ENE 16.1 mph 21.9 mph N/A   Mostly Cloudy
3:41 PM 78.8 °F - 71.6 °F 78% 30.06 in 10.0 mi ENE 17.3 mph - N/A Rain Light Rain
3:49 PM 78.8 °F - 71.6 °F 78% 30.06 in 10.0 mi ENE 16.1 mph 25.3 mph N/A   Overcast
3:53 PM 75.9 °F - 71.1 °F 85% 30.06 in 10.0 mi ENE 17.3 mph 25.3 mph N/A   Mostly Cloudy
4:53 PM 75.9 °F - 73.0 °F 91% 30.07 in 9.0 mi ENE 12.7 mph - N/A Rain Light Rain
5:53 PM 75.0 °F - 73.0 °F 94% 30.08 in 6.0 mi ESE 9.2 mph - N/A Rain Light Rain
6:00 PM 75.2 °F - 73.4 °F 94% 30.07 in 3.0 mi ESE 5.8 mph - 0.00 in Rain Light Rain
6:38 PM 77.0 °F - 71.6 °F 83% 30.08 in 3.0 mi ENE 16.1 mph - 0.00 in   Haze
6:53 PM 77.0 °F - 71.1 °F 82% 30.09 in 3.0 mi ENE 13.8 mph 26.5 mph 0.00 in Rain Light Rain
7:53 PM 75.0 °F - 72.0 °F 90% 30.10 in 9.0 mi NE 11.5 mph - 0.02 in Rain Light Rain
8:42 PM 75.2 °F - 71.6 °F 89% 30.10 in 10.0 mi ENE 12.7 mph - 0.00 in Rain Light Rain
8:53 PM 75.0 °F - 73.0 °F 94% 30.10 in 8.0 mi NE 10.4 mph 21.9 mph 0.01 in Rain Light Rain
9:10 PM 75.2 °F - 73.4 °F 94% 30.09 in 9.0 mi NE 10.4 mph - 0.00 in Rain Light Rain
9:29 PM 75.2 °F - 73.4 °F 94% 30.10 in 8.0 mi ENE 10.4 mph - 0.01 in Rain Light Rain
9:53 PM 75.0 °F - 73.0 °F 94% 30.11 in 7.0 mi ENE 12.7 mph - 0.04 in Rain Rain
10:26 PM 73.4 °F - 73.4 °F 100% 30.11 in 8.0 mi ENE 8.1 mph - 0.02 in Rain Light Rain
10:53 PM 73.9 °F - 73.0 °F 97% 30.10 in 9.0 mi NE 6.9 mph - 0.03 in Rain Light Rain
11:53 PM 73.9 °F - 73.0 °F 97% 30.09 in 10.0 mi ENE 9.2 mph - 0.02 in   Overcast